Regional Weather Roundup
Issued by NWS Newport/Morehead, NC

Current Version | Previous Version | Graphics & Text | Print | Product List | Glossary Off
Versions: 1 2 3 4 5 6 7 8 9 10 11 12 13 14 15 16 17 18 19 20 21 22 23 24 25 26 27 28 29 30 31 32 33 34 35 36 37 38 39 40 41 42 43 44 45 46 47 48 49 50

000
ASUS42 KMHX 191124
RWRMHX
WEATHER ROUNDUP FOR EASTERN NORTH CAROLINA
NATIONAL WEATHER SERVICE NEWPORT/MOREHEAD CITY NC
700 AM EDT SUN APR 19 2015

NOTE: "FAIR" INDICATES FEW OR NO CLOUDS BELOW 12,000 FEET
WITH NO SIGNIFICANT WEATHER AND/OR OBSTRUCTIONS TO VISIBILITY

NCZ015>017-031-032-045>047-102-103-191200-
NORTH COAST

CITY           SKY/WX    TMP DP  RH WIND       PRES   REMARKS
EDENTON        PTCLDY    58  57  97 NE5       30.04R FOG
ELIZABETH CITY CLEAR     58  58 100 NE5       30.03R
KITTY HAWK     FOG       54  54 100 CALM      30.03R VSB 1/4
MANTEO         CLEAR     58  58  99 NE3       30.04R

$$

NCZ045>047-081-094-103-104-191200-
CENTRAL COAST

CITY           SKY/WX    TMP DP  RH WIND       PRES   REMARKS
FRISCO         PTCLDY    59  59 100 NE5       30.02R
SWANQUARTER      N/A     64 N/A N/A NE3       30.00R

$$

NCZ095-097-098-100-101-191200-
SOUTHERN COAST

CITY           SKY/WX    TMP DP  RH WIND       PRES   REMARKS
BEAUFORT       CLOUDY    66  66 100 NE3       30.01R
CEDAR ISLAND     N/A     68 N/A N/A NE5       30.06R
JACKSONVILLE   MOCLDY    66  64  93 NE3       30.00R
PINEY ISLAND   PTSUNNY  N/A N/A N/A E8        30.01R
WILMINGTON     PTCLDY    66  64  93 CALM      29.99R


$$

NCZ011>013-027>030-043-044-078>080-089-090>093-098-191200-
COASTAL PLAIN

CITY           SKY/WX    TMP DP  RH WIND       PRES   REMARKS
AHOSKIE        PTCLDY    58  57  97 CALM      30.04R FOG
CLINTON        MOCLDY    65  65 100 CALM      30.00R
ELIZABETHTOWN  CLOUDY    64  64 100 E3        29.99S
GOLDSBORO      CLOUDY    64  64 100 NE6       30.00R FOG
GREENVILLE     FOG       64  63  94 E5        30.04R VSB 3/4
HAVELOCK       MOCLDY    66  64  93 NE3       30.02R
KENANSVILLE    CLOUDY    63  62  97 CALM      30.02R FOG
KINSTON        FOG       66  66 100 NE3       30.02R VSB<1/4
NEW BERN       CLOUDY    66  64  93 E5        30.03R FOG
RICHLANDS      CLOUDY    64  61  88 E6        30.01R
ROCKY MOUNT    FOG       64  64 100 CALM      30.02R VSB 1/4
WASHINGTON     CLOUDY    63  62  99 E3        30.03R FOG
WHITEVILLE     CLOUDY    64  62  96 E3        29.98R

$$

AMZ130-135-150-152-154-156-158-170-250-252-270-ANZ085-086-088-633-658-670-191200-
MARINE OBSERVATIONS

STATION/POSITION TIME  TEMP    WIND        PRES    WAVE   SWELL
                       AIR SEA DIR/SP/G            HT/PER HT/PER
                 (UTC) (F)     (DEG/KT/KT) (MB)    (FT/S) (FT/S)
CHESAPEAKE LIGHT 1100   54      50/ 20/ 21 1018.7
64 E VA BEACH    1050   59 56   30/ 14/ 17 1017.0    3/14   3/14
DUCK             1100   53 56   30/  4/  5 1016.2
2 E DUCK         1011      55                N/A     3/ 7   2/13
10 NE DUCK       NOT AVBL
OREGON INLET     1100   55 60   20/  5/  6 1016.9
HATTERAS CG      1100   65 66   50/  5/  7 1016.1
DIAMOND BUOY     1050   72 76   70/ 12/ 14 1016.0    4/13   3/13
CAPE LOOKOUT     1100   67      60/  5/  5 1015.7
BEAUFORT LAB     1100   67 64   20/  3/  4 1015.1
27 SE WRIGHTSVLE 1100   70 72  100/ 10/ 14   N/A
5 SE WRIGHTSVLE  1100   66 65   70/  8/ 10 1015.2
225 S CAPE HAT   1050   72 75   80/  8/ 12 1015.5    5/14   5/14
41 SE CHARLESTON 1050   73 75   60/  8/  8 1013.4    3/ 8   3/ 8

$$



USA.gov is the U.S. government's official web portal to all federal, state and local government web resources and services.